CW3081 Weather Reports


Display with metric or nautical units.
time (UTC)temp
F
wind
direction
speed
MPH
gust
MPH
rain 1hr
in
rain 24hr
in
rain mn
in
humidity
%
barometer
mb
20260505233045 67 240 1.0 3.0 0.00 0.00 0.00 74 1007.8
20260505231557 67 232 1.0 2.0 0.00 0.00 0.00 73 1007.7
20260505230055 66 219 0.0 2.0 0.00 0.00 0.00 75 1008.0
20260505224544 65 187 0.0 1.0 0.00 0.00 0.00 77 1008.0
20260505223048 64 220 0.0 1.0 0.00 0.00 0.00 79 1008.2
20260505221548 64 195 0.0 0.0 0.00 0.00 0.00 81 1008.5
20260505220047 63 0 0.0 1.0 0.00 0.00 0.00 83 1008.6
20260505214550 63 0 0.0 1.0 0.00 0.00 0.00 81 1008.8
20260505213056 65 221 2.0 5.0 0.00 0.00 0.00 75 1008.2
20260505211547 68 240 2.0 4.0 0.00 0.00 0.00 65 1009.6
20260505210055 70 219 2.0 5.0 0.00 0.00 0.00 60 1009.1
20260505204554 71 251 1.0 6.0 0.00 0.00 0.00 59 1009.1
20260505203045 72 237 2.0 6.0 0.00 0.00 0.00 56 1009.0
20260505201547 72 228 2.0 6.0 0.00 0.00 0.00 56 1009.1
20260505200044 72 236 2.0 6.0 0.00 0.00 0.00 55 1009.0
20260505194546 72 226 2.0 9.0 0.00 0.00 0.00 57 1009.4
20260505193044 73 187 2.0 5.0 0.00 0.00 0.00 60 1009.3
20260505191607 72 238 3.0 6.0 0.00 0.00 0.00 58 1009.6
20260505190050 71 214 3.0 6.0 0.00 0.00 0.00 61 1010.0
20260505184543 70 249 2.0 8.0 0.00 0.00 0.00 63 1009.9
20260505183049 69 259 1.0 3.0 0.00 0.00 0.00 67 1010.6
20260505181548 68 151 1.0 4.0 0.00 0.00 0.00 67 1010.3
20260505180100 67 167 0.0 2.0 0.00 0.00 0.00 68 1010.3
20260505174552 67 222 1.0 4.0 0.00 0.00 0.00 66 1010.0
20260505173046 67 213 1.0 3.0 0.00 0.00 0.00 67 1010.2
20260505171550 66 231 1.0 3.0 0.00 0.00 0.00 70 1010.7
20260505170046 65 0 0.0 0.0 0.00 0.00 0.00 73 1010.6
20260505164543 65 0 0.0 0.0 0.00 0.00 0.00 74 1011.7
20260505163042 65 0 0.0 0.0 0.00 0.00 0.00 73 1012.1
20260505161550 65 0 0.0 0.0 0.00 0.00 0.00 72 1012.4
20260505153045 66 217 0.0 2.0 0.00 0.00 0.00 71 1012.8
20260505151546 65 243 1.0 4.0 0.00 0.00 0.00 72 1012.6
20260505124557 0 0.0 0.0 0.00 0.00 0.00 1011.5
20260505123059 0 0.0 0.0 0.00 0.00 0.00 1011.5
20260505121552 0 0.0 0.0 0.00 0.00 0.00 1011.5
20260505120051 0 0.0 0.0 0.00 0.00 0.00 1011.5
20260505114546 0 0.0 0.0 0.00 0.00 0.00 1011.4
20260505113049 0 0.0 0.0 0.00 0.00 0.00 1010.9
20260505111543 0 0.0 0.0 0.00 0.00 0.00 1010.8
20260505101605 56 0 0.0 1.0 0.00 0.00 0.00 80 1010.6
20260505100100 57 0 0.0 0.0 0.00 0.00 0.00 78 1010.4
20260505094549 58 0 0.0 1.0 0.00 0.00 0.00 77 1010.4
20260505093059 59 0 0.0 0.0 0.00 0.00 0.00 75 1010.3
20260505091544 60 0 0.0 0.0 0.00 0.00 0.00 72 1010.3
20260505090045 60 0 0.0 0.0 0.00 0.00 0.00 71 1010.1
20260505084541 60 0 0.0 0.0 0.00 0.00 0.00 70 1010.2
20260505083043 61 224 0.0 1.0 0.00 0.00 0.00 70 1010.2
20260505081601 61 0 0.0 1.0 0.00 0.00 0.00 69 1010.0
20260505080059 61 0 0.0 1.0 0.00 0.00 0.00 69 1009.8
20260505074547 61 0 0.0 1.0 0.00 0.00 0.00 68 1010.0
20260505073047 61 224 0.0 1.0 0.00 0.00 0.00 68 1010.0
20260505071551 61 0 0.0 1.0 0.00 0.00 0.00 68 1010.2
20260505070045 62 0 0.0 1.0 0.00 0.00 0.00 67 1010.3
20260505064546 62 0 0.0 0.0 0.00 0.00 0.00 67 1010.6
20260505063050 62 0 0.0 0.0 0.00 0.00 0.00 67 1010.8
20260505061546 62 0 0.0 0.0 0.00 0.00 0.00 66 1010.9
20260505060046 63 0 0.0 0.0 0.00 0.00 0.00 65 1011.0
20260505054547 63 0 0.0 0.0 0.00 0.00 0.00 64 1011.1
20260505053046 63 0 0.0 0.0 0.00 0.00 0.00 64 1011.1
20260505051547 64 0 0.0 0.0 0.00 0.00 0.00 63 1010.9
20260505041541 66 0 0.0 0.0 0.00 0.00 0.00 59 1010.6
20260505040042 66 219 0.0 1.0 0.00 0.00 0.00 58 1010.8
20260505034548 67 0 0.0 1.0 0.00 0.00 0.00 58 1010.7
20260505033043 67 0 0.0 1.0 0.00 0.00 0.00 56 1010.6
20260505031548 67 219 0.0 1.0 0.00 0.00 0.00 55 1010.5
20260505030043 68 219 0.0 1.0 0.00 0.00 0.00 55 1010.4
20260505024551 68 0 0.0 1.0 0.00 0.00 0.00 55 1010.5
20260505023051 68 205 0.0 1.0 0.00 0.00 0.00 55 1010.3
20260505021545 69 167 0.0 1.0 0.00 0.00 0.00 54 1010.3
20260505020046 69 232 0.0 1.0 0.00 0.00 0.00 54 1010.2
20260505014550 69 238 0.0 1.0 0.00 0.00 0.00 55 1010.0
20260505013047 69 238 0.0 1.0 0.00 0.00 0.00 54 1010.2
20260505011548 70 238 0.0 1.0 0.00 0.00 0.00 54 1010.1
20260505010105 71 0 0.0 0.0 0.00 0.00 0.00 52 1010.2
20260505004546 72 0 0.0 1.0 0.00 0.00 0.00 49 1010.0
20260505003045 73 238 0.0 1.0 0.00 0.00 0.00 47 1010.1
20260505001539 74 241 0.0 1.0 0.00 0.00 0.00 46 1010.1
20260505000049 74 238 1.0 2.0 0.00 0.00 0.00 45 1010.0
20260504234545 75 231 1.0 2.0 0.00 0.00 0.00 44 1010.2